DW5977 Weather Reports


Display with metric or nautical units.
time (UTC)temp
F
wind
direction
speed
MPH
gust
MPH
rain 1hr
in
rain 24hr
in
rain mn
in
humidity
%
barometer
mb
20260508220503 56 234 4.0 11.0 0.00 0.11 0.10 34 1009.5
20260508220024 56 219 4.0 9.0 0.00 0.11 0.10 34 1009.6
20260508215524 56 214 4.0 10.0 0.00 0.11 0.10 34 1009.5
20260508215003 57 210 3.0 10.0 0.00 0.11 0.10 32 1009.5
20260508214503 57 222 3.0 9.0 0.00 0.11 0.10 35 1009.6
20260508214003 57 232 4.0 11.0 0.00 0.11 0.10 34 1009.5
20260508213503 57 230 4.0 13.0 0.00 0.11 0.10 33 1009.5
20260508213003 57 233 4.0 13.0 0.00 0.11 0.10 32 1009.5
20260508212503 57 251 5.0 11.0 0.00 0.11 0.10 32 1009.5
20260508212003 57 250 4.0 11.0 0.00 0.11 0.10 31 1009.6
20260508211524 57 249 4.0 10.0 0.00 0.11 0.10 36 1009.6
20260508211003 56 239 4.0 10.0 0.00 0.11 0.10 33 1009.5
20260508210503 56 217 4.0 10.0 0.00 0.11 0.10 36 1009.6
20260508210003 57 220 4.0 10.0 0.00 0.11 0.10 33 1009.6
20260508205503 56 222 4.0 10.0 0.00 0.11 0.10 35 1009.5
20260508205024 56 226 4.0 10.0 0.00 0.11 0.10 35 1009.6
20260508204503 56 241 5.0 11.0 0.00 0.11 0.10 36 1009.6
20260508204003 56 245 5.0 11.0 0.00 0.11 0.10 36 1009.6
20260508203503 56 224 3.0 11.0 0.00 0.11 0.10 37 1009.6
20260508203003 56 239 4.0 10.0 0.00 0.11 0.10 34 1009.7
20260508202503 55 260 4.0 10.0 0.00 0.11 0.10 36 1009.8
20260508202003 55 250 4.0 10.0 0.00 0.11 0.10 37 1009.8
20260508201503 55 229 5.0 9.0 0.00 0.11 0.10 36 1010.0
20260508201003 55 233 4.0 12.0 0.00 0.11 0.10 38 1010.1
20260508200503 56 251 4.0 12.0 0.00 0.11 0.10 40 1010.1
20260508200024 55 249 5.0 12.0 0.00 0.11 0.10 40 1010.1
20260508195524 56 232 4.0 12.0 0.00 0.11 0.10 38 1010.3
20260508195003 56 192 3.0 8.0 0.00 0.11 0.10 43 1010.2
20260508194503 55 217 4.0 11.0 0.00 0.11 0.10 40 1010.2
20260508194003 55 227 5.0 11.0 0.00 0.11 0.10 38 1010.3
20260508193503 55 230 5.0 11.0 0.00 0.11 0.10 39 1010.4
20260508193003 55 231 5.0 11.0 0.00 0.11 0.10 39 1010.5
20260508192503 55 226 4.0 10.0 0.00 0.11 0.10 43 1010.7
20260508192003 55 218 3.0 8.0 0.00 0.11 0.10 36 1010.6
20260508191524 56 229 3.0 8.0 0.00 0.11 0.10 38 1010.7
20260508191003 55 257 3.0 9.0 0.00 0.11 0.10 42 1010.7
20260508190524 55 244 4.0 9.0 0.00 0.11 0.10 39 1010.7
20260508190003 54 215 4.0 9.0 0.00 0.11 0.10 39 1010.8
20260508185503 54 215 4.0 9.0 0.00 0.11 0.10 43 1010.8
20260508185003 55 226 4.0 11.0 0.00 0.11 0.10 43 1011.0
20260508184503 54 209 4.0 11.0 0.00 0.11 0.10 44 1011.1
20260508184003 54 175 4.0 9.0 0.00 0.11 0.10 48 1011.1
20260508183503 54 191 4.0 9.0 0.00 0.11 0.10 46 1011.0
20260508183003 54 200 3.0 8.0 0.00 0.11 0.10 50 1011.0
20260508182524 54 178 2.0 7.0 0.00 0.11 0.10 49 1010.9
20260508182024 53 188 3.0 10.0 0.00 0.11 0.10 50 1011.0
20260508181503 54 209 3.0 10.0 0.00 0.11 0.10 52 1011.2
20260508181003 54 248 3.0 9.0 0.00 0.11 0.10 49 1011.1
20260508180503 54 267 3.0 9.0 0.00 0.11 0.10 52 1011.1
20260508180003 54 255 3.0 8.0 0.00 0.11 0.10 55 1011.1
20260508175503 53 246 4.0 12.0 0.00 0.11 0.10 51 1011.1
20260508175024 53 231 4.0 12.0 0.00 0.11 0.10 55 1011.2
20260508174524 53 174 3.0 12.0 0.00 0.11 0.10 55 1011.2
20260508174003 52 198 3.0 7.0 0.00 0.11 0.10 58 1011.3
20260508173503 52 235 3.0 7.0 0.00 0.11 0.10 56 1011.4
20260508173003 52 258 2.0 8.0 0.00 0.11 0.10 56 1011.4
20260508172503 53 232 3.0 8.0 0.00 0.11 0.10 52 1011.4
20260508172003 53 206 3.0 11.0 0.00 0.11 0.10 54 1011.5
20260508171503 52 179 3.0 11.0 0.00 0.11 0.10 54 1011.5
20260508171003 52 180 2.0 8.0 0.00 0.11 0.10 54 1011.5
20260508170503 52 262 2.0 9.0 0.00 0.11 0.10 55 1011.6
20260508170003 51 272 3.0 10.0 0.00 0.11 0.10 54 1011.7
20260508165503 51 240 3.0 10.0 0.00 0.11 0.10 57 1011.7
20260508165003 51 224 3.0 6.0 0.00 0.11 0.10 55 1011.7
20260508164503 51 241 3.0 9.0 0.00 0.11 0.10 56 1011.7
20260508164003 50 232 3.0 9.0 0.00 0.11 0.10 55 1011.7
20260508163524 50 235 3.0 8.0 0.00 0.11 0.10 57 1011.7
20260508163003 50 262 3.0 8.0 0.00 0.11 0.10 59 1011.8
20260508162503 52 251 3.0 9.0 0.00 0.11 0.10 58 1011.7
20260508162003 50 248 3.0 9.0 0.00 0.11 0.10 61 1011.8
20260508161503 51 235 3.0 6.0 0.00 0.11 0.10 59 1012.0
20260508161003 51 233 2.0 7.0 0.00 0.11 0.10 63 1012.0
20260508160503 50 255 3.0 7.0 0.00 0.11 0.10 68 1012.1
20260508160003 50 252 4.0 9.0 0.00 0.11 0.10 64 1012.1
20260508155524 50 237 3.0 9.0 0.00 0.11 0.10 62 1012.2
20260508155003 50 217 3.0 8.0 0.00 0.11 0.10 65 1012.2
20260508154503 49 203 3.0 7.0 0.00 0.11 0.10 67 1012.1
20260508154003 49 192 3.0 7.0 0.00 0.11 0.10 64 1012.2
20260508153503 50 197 3.0 8.0 0.00 0.11 0.10 66 1012.3
20260508153003 49 206 3.0 8.0 0.00 0.11 0.10 67 1012.4
20260508152503 49 230 2.0 8.0 0.00 0.11 0.10 68 1012.3
20260508152003 48 239 3.0 8.0 0.00 0.11 0.10 71 1012.3
20260508151503 48 228 4.0 9.0 0.00 0.11 0.10 72 1012.5
20260508151003 48 213 3.0 9.0 0.00 0.11 0.10 73 1012.4
20260508150524 46 204 2.0 6.0 0.00 0.11 0.10 74 1012.4
20260508150004 46 237 3.0 8.0 0.00 0.11 0.10 73 1012.4
20260508145524 46 246 3.0 8.0 0.00 0.11 0.10 73 1012.3
20260508145003 46 219 2.0 5.0 0.00 0.11 0.10 76 1012.2
20260508144503 47 201 1.0 4.0 0.00 0.11 0.10 76 1012.2
20260508144003 47 184 2.0 6.0 0.00 0.11 0.10 79 1012.2
20260508143503 46 183 2.0 6.0 0.00 0.11 0.10 79 1012.1
20260508143003 45 200 2.0 5.0 0.00 0.11 0.10 80 1012.1
20260508142503 44 209 2.0 4.0 0.00 0.11 0.10 80 1012.2
20260508142003 45 219 2.0 4.0 0.00 0.11 0.10 82 1012.2
20260508141503 45 227 1.0 4.0 0.00 0.11 0.10 82 1012.2
20260508141003 45 199 1.0 5.0 0.00 0.11 0.10 84 1012.2
20260508140503 43 158 1.0 5.0 0.01 0.11 0.10 84 1012.2
20260508140003 43 150 1.0 3.0 0.01 0.11 0.10 86 1012.2
20260508135503 42 187 1.0 4.0 0.01 0.11 0.10 86 1012.2
20260508135003 42 222 1.0 4.0 0.01 0.11 0.10 87 1012.2
20260508134503 42 223 1.0 4.0 0.01 0.11 0.10 88 1012.1
20260508134003 42 224 1.0 3.0 0.01 0.11 0.10 88 1012.1
20260508133503 41 225 1.0 3.0 0.01 0.11 0.10 88 1012.2
20260508133024 41 226 1.0 3.0 0.01 0.11 0.10 88 1012.2
20260508132503 41 230 1.0 3.0 0.01 0.11 0.10 87 1012.1
20260508132024 41 235 1.0 3.0 0.01 0.11 0.10 87 1012.2
20260508131503 41 237 1.0 3.0 0.01 0.11 0.10 87 1012.2
20260508131003 41 238 0.0 3.0 0.01 0.11 0.10 87 1012.2
20260508130503 41 242 0.0 2.0 0.00 0.10 0.09 87 1012.1
20260508130003 41 242 1.0 3.0 0.00 0.10 0.09 87 1012.2
20260508125503 41 242 0.0 3.0 0.00 0.10 0.09 87 1012.2
20260508125003 41 0 0.0 2.0 0.00 0.10 0.09 86 1012.2
20260508124503 40 0 0.0 2.0 0.01 0.10 0.09 86 1012.3
20260508124003 41 242 0.0 1.0 0.01 0.10 0.09 87 1012.3
20260508123503 41 242 0.0 2.0 0.02 0.10 0.09 87 1012.2
20260508123003 40 242 0.0 3.0 0.03 0.10 0.09 87 1012.0
20260508122503 40 242 1.0 3.0 0.04 0.10 0.09 87 1012.2
20260508122003 41 242 1.0 3.0 0.05 0.10 0.09 87 1012.1
20260508121503 41 242 1.0 3.0 0.06 0.10 0.09 87 1012.1
20260508121003 41 242 1.0 3.0 0.06 0.10 0.09 87 1012.1
20260508120503 41 242 1.0 3.0 0.06 0.10 0.09 87 1012.0
20260508120003 41 242 2.0 5.0 0.06 0.10 0.09 87 1012.0
20260508115503 41 241 2.0 5.0 0.06 0.10 0.09 87 1012.0
20260508115003 41 244 1.0 5.0 0.06 0.10 0.09 87 1012.1
20260508114503 41 256 2.0 7.0 0.05 0.09 0.08 86 1012.0
20260508114024 41 256 2.0 7.0 0.06 0.09 0.08 86 1011.9
20260508113503 41 255 1.0 6.0 0.05 0.08 0.07 86 1011.9
20260508113003 42 265 1.0 2.0 0.05 0.07 0.06 86 1012.1
20260508112503 42 265 0.0 2.0 0.04 0.06 0.05 86 1011.9
20260508112003 41 265 0.0 1.0 0.03 0.05 0.04 85 1011.8
20260508111503 41 265 0.0 1.0 0.02 0.04 0.03 84 1011.5
20260508111003 41 265 0.0 2.0 0.02 0.04 0.03 84 1011.5
20260508110503 41 265 0.0 2.0 0.02 0.04 0.03 84 1011.4
20260508110003 42 265 0.0 2.0 0.03 0.04 0.03 83 1011.3
20260508105503 42 265 0.0 1.0 0.03 0.04 0.03 83 1011.2
20260508105024 42 265 0.0 1.0 0.03 0.04 0.03 82 1011.1
20260508104503 42 253 1.0 7.0 0.03 0.04 0.03 82 1011.1
20260508104003 42 252 2.0 8.0 0.02 0.03 0.02 81 1011.2
20260508103524 42 256 2.0 8.0 0.02 0.03 0.02 81 1011.2
20260508103003 42 267 2.0 4.0 0.01 0.02 0.01 82 1011.2
20260508102503 42 264 3.0 10.0 0.01 0.02 0.01 82 1011.1
20260508102003 42 254 2.0 10.0 0.01 0.02 0.01 84 1011.0
20260508101503 42 201 1.0 6.0 0.01 0.02 0.01 86 1010.9
20260508101003 42 181 0.0 2.0 0.01 0.02 0.01 86 1010.8
20260508100503 42 0 0.0 0.0 0.01 0.02 0.01 85 1010.8
20260508100003 42 0 0.0 0.0 0.00 0.01 0.00 85 1010.7
20260508095524 42 181 0.0 1.0 0.00 0.01 0.00 84 1010.6
20260508095003 42 181 0.0 1.0 0.00 0.01 0.00 84 1010.6
20260508094524 42 181 0.0 1.0 0.00 0.01 0.00 84 1010.5
20260508094003 42 181 1.0 3.0 0.00 0.01 0.00 84 1010.7
20260508093503 42 182 1.0 3.0 0.00 0.01 0.00 84 1010.7
20260508093024 42 182 1.0 3.0 0.00 0.01 0.00 84 1010.6
20260508092503 42 182 1.0 2.0 0.00 0.01 0.00 84 1010.8
20260508092003 42 182 0.0 2.0 0.00 0.01 0.00 83 1010.9
20260508091503 42 182 0.0 2.0 0.00 0.01 0.00 83 1010.9
20260508091024 42 182 0.0 2.0 0.00 0.01 0.00 83 1010.8
20260508090503 42 182 0.0 2.0 0.00 0.01 0.00 82 1010.8
20260508090024 42 182 1.0 4.0 0.00 0.01 0.00 82 1011.0
20260508085503 42 182 1.0 4.0 0.00 0.01 0.00 82 1011.0
20260508085003 42 185 1.0 5.0 0.00 0.01 0.00 82 1011.1
20260508084503 42 190 2.0 5.0 0.00 0.01 0.00 82 1011.0
20260508084003 42 192 2.0 4.0 0.00 0.01 0.00 83 1011.1
20260508083503 42 191 2.0 4.0 0.00 0.01 0.00 83 1011.0
20260508083024 42 187 2.0 4.0 0.00 0.01 0.00 83 1011.3
20260508082503 42 189 3.0 8.0 0.00 0.01 0.00 84 1011.2
20260508082003 42 196 4.0 9.0 0.00 0.01 0.00 85 1011.1
20260508081503 42 194 2.0 9.0 0.00 0.01 0.00 87 1011.0
20260508081003 42 191 1.0 9.0 0.00 0.01 0.00 88 1011.1
20260508080503 42 197 2.0 6.0 0.00 0.01 0.00 88 1011.2
20260508080003 42 210 2.0 7.0 0.00 0.01 0.00 89 1011.1
20260508075503 41 218 2.0 7.0 0.00 0.01 0.00 89 1011.1
20260508075003 41 216 2.0 5.0 0.00 0.01 0.00 90 1011.2
20260508074524 41 236 2.0 5.0 0.00 0.01 0.00 90 1011.2
20260508074003 41 305 2.0 5.0 0.00 0.01 0.00 90 1011.2
20260508073503 41 335 1.0 3.0 0.00 0.01 0.00 90 1011.1
20260508073024 41 336 0.0 3.0 0.00 0.01 0.00 90 1011.1
20260508072503 41 0 0.0 0.0 0.00 0.01 0.00 90 1011.1
20260508072003 41 0 0.0 0.0 0.00 0.01 0.00 90 1011.1
20260508071503 41 0 0.0 0.0 0.00 0.01 0.00 90 1011.0
20260508071003 41 0 0.0 0.0 0.00 0.01 0.00 90 1010.9
20260508070524 41 336 0.0 1.0 0.00 0.01 0.00 90 1011.0
20260508070024 41 336 0.0 2.0 0.00 0.01 0.00 90 1011.0
20260508065503 41 336 0.0 3.0 0.00 0.01 0.00 90 1011.1
20260508065003 41 336 0.0 3.0 0.00 0.01 0.00 90 1011.1
20260508064503 41 336 1.0 3.0 0.00 0.01 0.00 90 1011.2
20260508064024 41 336 1.0 3.0 0.00 0.01 0.00 90 1011.2
20260508063503 41 337 0.0 2.0 0.00 0.01 0.00 91 1011.1
20260508063003 41 0 0.0 0.0 0.00 0.01 0.00 91 1011.2
20260508062524 40 0 0.0 0.0 0.00 0.01 0.00 91 1011.3
20260508062003 40 0 0.0 0.0 0.00 0.01 0.00 91 1011.3
20260508061503 40 0 0.0 0.0 0.00 0.01 0.00 90 1011.1
20260508061003 40 0 0.0 0.0 0.00 0.01 0.00 90 1011.2
20260508060503 40 0 0.0 0.0 0.00 0.01 0.00 90 1011.2
20260508060003 40 0 0.0 0.0 0.00 0.01 0.00 90 1011.3
20260508055503 40 0 0.0 0.0 0.00 0.01 0.00 90 1011.3
20260508055003 40 0 0.0 0.0 0.00 0.01 0.00 90 1011.3
20260508054503 40 0 0.0 0.0 0.00 0.01 0.00 90 1011.4
20260508054003 40 0 0.0 0.0 0.00 0.01 0.00 90 1011.5
20260508053503 40 0 0.0 0.0 0.00 0.01 0.00 90 1011.5
20260508053003 40 337 0.0 1.0 0.00 0.01 0.00 90 1011.3
20260508052524 40 337 0.0 2.0 0.00 0.01 0.00 90 1011.4
20260508052024 39 337 0.0 2.0 0.00 0.01 0.00 90 1011.6
20260508051503 39 337 0.0 2.0 0.00 0.01 0.00 90 1011.7
20260508051003 39 337 0.0 2.0 0.00 0.01 0.00 89 1011.6
20260508050503 39 337 0.0 2.0 0.00 0.01 0.00 89 1011.6
20260508050024 39 337 0.0 2.0 0.00 0.01 0.00 89 1011.7
20260508045503 39 337 0.0 1.0 0.00 0.01 0.00 89 1011.8
20260508045003 39 0 0.0 0.0 0.00 0.01 0.00 89 1011.8
20260508044503 39 0 0.0 0.0 0.00 0.01 0.00 88 1011.8
20260508044003 39 0 0.0 0.0 0.00 0.01 0.00 88 1011.8
20260508043524 39 337 0.0 1.0 0.00 0.01 0.00 88 1011.7
20260508043003 40 337 0.0 1.0 0.00 0.01 0.00 88 1011.7
20260508042503 40 0 0.0 0.0 0.00 0.01 0.00 88 1011.7
20260508042003 40 0 0.0 0.0 0.00 0.01 0.00 87 1011.7
20260508041504 40 0 0.0 0.0 0.00 0.01 0.00 87 1011.6
20260508041003 40 0 0.0 0.0 0.00 0.01 0.00 87 1011.6
20260508040503 40 0 0.0 0.0 0.00 0.01 0.00 87 1011.6
20260508040003 40 0 0.0 0.0 0.00 0.01 0.00 86 1011.6
20260508035503 40 0 0.0 0.0 0.00 0.01 0.01 86 1011.7
20260508035024 40 0 0.0 0.0 0.00 0.01 0.01 86 1011.6
20260508034503 41 0 0.0 0.0 0.00 0.01 0.01 86 1011.6
20260508034003 41 0 0.0 0.0 0.00 0.01 0.01 86 1011.6
20260508033524 41 0 0.0 0.0 0.00 0.01 0.01 85 1011.6
20260508033003 41 0 0.0 0.0 0.00 0.01 0.01 85 1011.6
20260508032503 42 0 0.0 0.0 0.00 0.01 0.01 85 1011.6
20260508032003 42 0 0.0 0.0 0.00 0.01 0.01 85 1011.7
20260508031524 42 0 0.0 0.0 0.01 0.01 0.01 85 1011.6
20260508031003 42 0 0.0 0.0 0.01 0.01 0.01 84 1011.5
20260508030524 42 337 0.0 2.0 0.01 0.01 0.01 84 1011.4
20260508030003 43 337 0.0 2.0 0.01 0.01 0.01 84 1011.5
20260508025503 43 337 0.0 2.0 0.01 0.01 0.01 83 1011.5
20260508025003 43 337 0.0 2.0 0.01 0.01 0.01 83 1011.4
20260508024524 43 337 0.0 2.0 0.01 0.01 0.01 83 1011.5
20260508024003 43 337 0.0 2.0 0.01 0.01 0.01 82 1011.5
20260508023524 43 337 1.0 2.0 0.01 0.01 0.01 82 1011.5
20260508023003 43 337 1.0 4.0 0.01 0.01 0.01 82 1011.5
20260508022503 43 338 1.0 4.0 0.01 0.01 0.01 81 1011.5
20260508022003 43 332 2.0 5.0 0.01 0.01 0.01 81 1011.6
20260508021503 44 316 1.0 5.0 0.00 0.00 0.00 81 1011.6
20260508021003 44 281 1.0 4.0 0.00 0.00 0.00 80 1011.6
20260508020503 44 250 1.0 3.0 0.00 0.00 0.00 79 1011.6
20260508020003 44 249 1.0 4.0 0.00 0.00 0.00 78 1011.4
20260508015503 44 260 2.0 8.0 0.00 0.00 0.00 77 1011.4
20260508015024 44 270 3.0 13.0 0.00 0.00 0.00 76 1011.4
20260508014503 44 278 5.0 14.0 0.00 0.00 0.00 74 1011.5
20260508014003 45 278 6.0 13.0 0.00 0.00 0.00 73 1011.5
20260508013503 45 273 4.0 12.0 0.00 0.00 0.00 72 1011.4
20260508013003 46 270 4.0 14.0 0.00 0.00 0.00 72 1011.3
20260508012503 46 272 5.0 14.0 0.00 0.00 0.00 70 1011.3
20260508012024 46 271 6.0 13.0 0.00 0.00 0.00 70 1011.2
20260508011503 46 267 5.0 13.0 0.00 0.00 0.00 69 1011.1
20260508011003 46 262 3.0 12.0 0.00 0.00 0.00 69 1011.0
20260508010503 46 250 2.0 6.0 0.00 0.00 0.00 70 1010.9
20260508010003 46 247 2.0 7.0 0.00 0.00 0.00 69 1010.8
20260508005503 46 266 2.0 7.0 0.00 0.00 0.00 69 1010.7
20260508005024 46 277 2.0 7.0 0.00 0.00 0.00 69 1010.6
20260508004503 46 282 3.0 7.0 0.00 0.00 0.00 69 1010.5
20260508004003 46 279 3.0 7.0 0.00 0.00 0.00 69 1010.6
20260508003503 46 284 3.0 11.0 0.00 0.00 0.00 69 1010.5
20260508003003 47 277 3.0 11.0 0.00 0.00 0.00 68 1010.5
20260508002503 47 268 4.0 10.0 0.00 0.00 0.00 68 1010.6
20260508002024 47 269 6.0 12.0 0.00 0.00 0.00 66 1010.5
20260508001503 48 262 6.0 12.0 0.00 0.00 0.00 63 1010.5
20260508001003 49 254 4.0 12.0 0.00 0.00 0.00 57 1010.4
20260508000503 49 247 3.0 10.0 0.00 0.00 0.00 54 1010.3
20260508000003 49 222 3.0 10.0 0.00 0.00 0.00 53 1010.2
20260507235503 49 228 3.0 8.0 0.00 0.00 0.00 52 1010.2
20260507235003 49 233 3.0 9.0 0.00 0.00 0.00 52 1010.1
20260507234524 49 227 3.0 9.0 0.00 0.00 0.00 53 1010.0
20260507234003 49 216 4.0 10.0 0.00 0.00 0.00 50 1010.1
20260507233503 50 218 4.0 10.0 0.00 0.00 0.00 50 1009.9
20260507233003 50 237 3.0 9.0 0.00 0.00 0.00 50 1010.0
20260507232503 50 221 5.0 10.0 0.00 0.00 0.00 50 1010.0
20260507232003 51 210 5.0 11.0 0.00 0.00 0.00 49 1009.9
20260507231503 51 217 4.0 11.0 0.00 0.00 0.00 50 1009.9
20260507231003 52 216 4.0 11.0 0.00 0.00 0.00 50 1009.9
20260507230503 52 230 3.0 8.0 0.00 0.00 0.00 52 1009.8
20260507230003 52 242 3.0 9.0 0.00 0.00 0.00 53 1009.8
20260507225503 52 215 4.0 9.0 0.00 0.00 0.00 53 1009.8
20260507225003 52 210 4.0 13.0 0.00 0.00 0.00 52 1009.8
20260507224503 52 228 4.0 13.0 0.00 0.00 0.00 52 1009.8
20260507224003 53 241 4.0 9.0 0.00 0.00 0.00 53 1009.7
20260507223503 53 224 4.0 9.0 0.00 0.00 0.00 53 1009.7
20260507223024 53 206 4.0 8.0 0.00 0.00 0.00 53 1009.8
20260507222503 53 225 3.0 8.0 0.00 0.00 0.00 51 1009.8
20260507222003 53 253 2.0 7.0 0.00 0.00 0.00 51 1009.8
20260507221503 53 245 3.0 9.0 0.00 0.00 0.00 53 1009.8
20260507221003 53 222 4.0 9.0 0.00 0.00 0.00 50 1009.7